Regional Weather Roundup
Issued by NWS

Home | Current Version | Previous Version | Text Only | Print | Product List | Glossary Off
Versions: 1 2 3 4 5 6 7 8 9 10 11 12 13 14 15 16 17 18 19 20 21 22 23 24 25 26 27 28 29 30 31 32 33 34 35 36 37 38 39 40 41 42 43 44 45 46 47 48 49 50

000
ASUS45 KPSR 272010
RWRAZ

ARIZONA REGIONAL HOURLY WEATHER ROUNDUP
NATIONAL WEATHER SERVICE PHOENIX AZ
100 PM MST FRI MAR 27 2015

NOTE: FAIR INDICATES FEW OR NO CLOUDS BELOW 12,000 FEET WITH NO
SIGNIFICANT WEATHER AND/OR OBSTRUCTIONS TO VISIBILITY.

AZZ001>003-036-272100-
NORTHWEST ARIZONA

CITY           SKY/WX    TMP DP  RH WIND       PRES   REMARKS
BULLHEAD CITY  SUNNY     86  27  11 NW12      30.08F
KINGMAN        SUNNY     80  21  11 CALM      30.19F
$$

AZZ004>008-015-016-018-272100-
NORTH CENTRAL ARIZONA

CITY           SKY/WX    TMP DP  RH WIND       PRES   REMARKS
GRAND CANYON   SUNNY     70  13  11 SW10      30.33F
WILLIAMS       SUNNY     70  14  11 W10G18    30.41F
PRESCOTT       SUNNY     75  19  12 VRB3      30.27F
FLAGSTAFF      SUNNY     70  13  11 SW15G21   30.35F
PAYSON         SUNNY     75  19  12 SW10      30.28F
PAGE           SUNNY     70  21  15 VRB5      30.23F
$$

AZZ009>014-017-272100-
NORTHEAST ARIZONA

CITY           SKY/WX    TMP DP  RH WIND       PRES   REMARKS
WINSLOW        SUNNY     73  14  10 VRB3      30.27F
SAINT JOHNS    SUNNY     70  13  11 CALM      30.28F
WINDOW ROCK    SUNNY     71  12  10 NW12G18   30.31F
SHOW LOW       SUNNY     68  10  10 W5        30.35F
$$

AZZ023-272100-
GREATER PHOENIX AREA

CITY           SKY/WX    TMP DP  RH WIND       PRES   REMARKS
PHOENIX        SUNNY     90  18   7 VRB5      30.06F
BUCKEYE        SUNNY     86  27  11 SE7       30.08F
GLENDALE       SUNNY     88  25  10 SE6       30.08F
LUKE AFB       SUNNY     87  25  10 CALM      30.06F
DEER VALLEY    SUNNY     85  20   9 SE5       30.08F
SCOTTSDALE     SUNNY     87  19   8 VRB6      30.09F
MESA-FALCON    SUNNY     88  19   8 SW8       30.07F
MESA-GATEWAY   SUNNY     84  27  12 W5        30.10F
CHANDLER       SUNNY     86  21   9 SW8       30.08F
$$

AZZ027-028-272100-
SOUTHWEST MARICOPA COUNTY AND PINAL COUNTY

CITY           SKY/WX    TMP DP  RH WIND       PRES   REMARKS
CASA GRANDE    SUNNY     88  27  11 CALM      30.07F
GILA BEND      SUNNY     91  19   7 N7        30.03F
$$

AZZ503-504-507>509-272100-
SOUTHEAST ARIZONA

CITY           SKY/WX    TMP DP  RH WIND       PRES   REMARKS
TUCSON         SUNNY     89   9   5 E6        30.13F
DAVIS-MONTHAN  SUNNY     88  17   7 SE6       30.11F
RYAN FIELD       N/A     90  21   8 E8        30.12F
NOGALES        SUNNY     85  17   8 CALM      30.18F
SIERRA VISTA   SUNNY     78  14   9 SE8       30.24F
DOUGLAS        SUNNY     80  21  11 E9        30.22F
SAFFORD        SUNNY     79  21  11 S6        30.16F
$$

AZZ020-021-025-026-031-272100-
SOUTHWEST ARIZONA

CITY           SKY/WX    TMP DP  RH WIND       PRES   REMARKS
YUMA           SUNNY     93  26   9 VRB5      30.03F
$$

CAZ031-033-041-043-047-048-061-272100-
SOUTHERN CALIFORNIA

CITY           SKY/WX    TMP DP  RH WIND       PRES   REMARKS
DOWNTOWN L.A.  SUNNY     90  41  18 CALM      30.04F
L.A. AIRPORT   MOSUNNY   78  53  41 W8        30.07F
SAN DIEGO      SUNNY     80  50  34 NW7       30.07F
BURBANK        SUNNY     89  35  14 S6        30.07F
ONTARIO        SUNNY     89  29  11 W7        30.08F
RIVERSIDE      SUNNY     91  27  10 SW6       30.07F
PALM SPRINGS   SUNNY     94  22   7 VRB5      30.05F
EL CENTRO NAS  SUNNY     91  37  15 SE5       30.02F
IMPERIAL       SUNNY     92  30  11 CALM      30.02F
BLYTHE         SUNNY     89  30  12 E6        30.06F
NEEDLES        SUNNY     87  21   9 N5        30.08F
$$

NVZ020-UTZ003-272100-
SOUTHERN NEVADA-UTAH

CITY           SKY/WX    TMP DP  RH WIND       PRES   REMARKS
LAS VEGAS      SUNNY     81  25  12 CALM      30.11F
SALT LAKE CITY MOSUNNY   65  30  27 SE3       30.26F
$$

NMZ009-TXZ055-272100-
NEW MEXICO-WEST TEXAS

CITY           SKY/WX    TMP DP  RH WIND       PRES   REMARKS
ALBUQUERQUE    SUNNY     71  21  15 W10G18    30.24F
EL PASO        SUNNY     76  24  14 CALM      30.22F
$$


........................KEY........................
SKY/WX - SKY CONDITION/WEATHER
TMP    - TEMPERATURE IN FAHRENHEIT
DP     - DEW POINT IN FAHRENHEIT
RH     - RELATIVE HUMIDITY IN PERCENT
WIND   - DIRECTION AND SPEED IN MILES PER HOUR (MPH)
VRB    - VARIABLE WIND DIRECTION
PRES   - MEAN SEA LEVEL PRESSURE IN INCHES OF MERCURY
         F - FALLING PRESSURE   R - RISING PRESSURE
         S - STEADY PRESSURE
VSB    - VISIBILITY IN MILES
HX     - HEAT INDEX IN FAHRENHEIT
WCI    - WIND CHILL INDEX IN FAHRENHEIT
TC     - TEMPERATURE IN CELSIUS WHICH IS ALSO KNOWN AS
         TEMPERATURE IN CENTIGRADE
AFB    - AIR FORCE BASE
         LUKE AFB IS LUKE AIR FORCE BASE
         DAVIS-MONTHAN IS DAVIS-MONTHAN AIR FORCE BASE
NAS    - NAVAL AIR STATION
         EL CENTRO NAS IS EL CENTRO NAVAL AIR STATION
N/A    - NOT AVAILABLE



USA.gov is the U.S. government's official web portal to all federal, state and local government web resources and services.